Погода в Усть-Мане

Россия / Красноярский край     55°56′33″N   92°28′42″E
темп.,
°C
ветер,
м/с
пор.,
м/с
влажн.,
%
обл.,
%
осадки,
мм/ч
давл.,
гПа
погр.,
м
8 мая, сб
сб801:00+7з36770 0.2 1011160
04:00+6з31088100 0.1 1013367
07:00+8з387560 0.1 1013970
10:00+10з6105961 0.7 10121581
13:00+11з6945100 0.8 10122356
16:00+9зсз5963100 0.3 10121305
19:00+7з3876100 0.7 1013832
22:00+5зюз5108327 0.1 1012746
9 мая, вс
вс901:00+4з4108636 0.4 1013699
04:00+3зсз3792100 0.6 1014684
07:00+3зсз4783100 1.2 1015738
10:00+3зсз4674100 0.1 1016955
13:00+6сз466698 0.4 10161316
16:00+6ссз3566100 1.0 10171191
19:00+6ссз246951 1.4 1018925
22:00+2сз229171 0.1 102019
10 мая, пн
пн1001:00+3зсз128997 0.1 102164
04:00+2зсз1290100 0.0 102158
07:00+3зсз128399 0.0 1023146
10:00+7с236695 0.1 10231121
13:00+9ссв335797 0.1 10221441
16:00+12ссв234780 0.1 10211653
19:00+10ссв246591 0.5 1022646
22:00+5с11835 0.0 102210
11 мая, вт
вт1101:00+4с11885 0.0 102110
04:00+3ссв11910 0.0 102010
07:00+6св12784 0.0 1019170
10:00+10всв46565 0.0 10181126
13:00+13всв454384 0.0 10162104
16:00+13всв3442100 0.0 10141936
19:00+12св255289 0.0 1015282
22:00+7св116595 0.0 101510
12 мая, ср
ср1201:00+5ссв2275100 0.0 101525
04:00+4ссв239778 0.0 101691
07:00+6св259089 0.0 1016420
10:00+7всв3575100 0.0 1017809
13:00+8св3573100 0.1 1017963
16:00+9св455878 0.1 10171128
19:00+10с24517 0.1 1017507
22:00+5зсз216843 0.0 101913